Change the Weather History Date:

Thursday, September 5, 2013

  Actual Average (KTHV) Record (KTHV)
Temperature  
Mean Temperature 70 °F -  
Max Temperature 80 °F 0 °F 87 °F (2007)
Min Temperature 59 °F - 42 °F (1997)
Cooling Degree Days 5    
Growing Degree Days 20 (Base 50)    
Moisture  
Dew Point 54 °F    
Average Humidity 60    
Maximum Humidity 82    
Minimum Humidity 26    
Precipitation  
Precipitation 0.00 in - - ()
Sea Level Pressure  
Sea Level Pressure 30.08 in    
Wind  
Wind Speed 5 mph (West)    
Max Wind Speed 12 mph    
Max Gust Speed 21 mph    
Visibility 10 miles    
Events      
Averages and records for this station are not official NWS values.
T = Trace of Precipitation, MM = Missing Value Source: NWS Daily Summary

Daily Weather History Graph

Daily Weather History Graph

Search for Another Location

Airport or City:

Trip Planner

Search our weather history database for the weather conditions in past years. The results will help you decide how hot, cold, wet, or windy it might be!

Date:

Astronomy

Sep. 05, 2013 Rise Set
Actual Time 6:40 AM EDT 7:32 PM EDT
Civil Twilight 6:12 AM EDT 7:59 PM EDT
Nautical Twilight 5:40 AM EDT 8:32 PM EDT
Astronomical Twilight 5:06 AM EDT 9:05 PM EDT
Moon 6:49 AM EDT (9/5) 7:23 PM EDT (9/5)
Length of Visible Light 13h 47m
Length of Day
12h 52m
New Moon, 0% of the Moon is Illuminated
Sep 5
New Moon
Sep 12
First Quarter
Sep 19
Full
Sep 26
Last Quarter
Oct 4
New

Hourly Weather History & Observations

Time (EDT) Temp. Dew Point Humidity Pressure Visibility Wind Dir Wind Speed Gust Speed Precip Events Conditions
12:10 AM 69.8 °F 53.6 °F 56% 30.08 in 10.0 mi Calm Calm - N/A   Clear
12:30 AM 68.0 °F 53.6 °F 60% 30.07 in 10.0 mi WNW 3.5 mph - N/A   Clear
12:50 AM 68.0 °F 55.4 °F 64% 30.07 in 10.0 mi WNW 3.5 mph - N/A   Clear
1:10 AM 66.2 °F 57.2 °F 73% 30.07 in 10.0 mi Calm Calm - N/A   Clear
1:30 AM 62.6 °F 57.2 °F 82% 30.07 in 10.0 mi WSW 3.5 mph - N/A   Clear
1:50 AM 62.6 °F 57.2 °F 82% 30.07 in 10.0 mi WSW 3.5 mph - N/A   Clear
2:10 AM 62.6 °F 57.2 °F 82% 30.06 in 10.0 mi WSW 5.8 mph - N/A   Clear
2:30 AM 62.6 °F 55.4 °F 77% 30.06 in 10.0 mi SW 3.5 mph - N/A   Clear
2:50 AM 62.6 °F 53.6 °F 72% 30.06 in 10.0 mi WSW 4.6 mph - N/A   Clear
3:10 AM 60.8 °F 55.4 °F 82% 30.05 in 10.0 mi SW 5.8 mph - N/A   Clear
3:30 AM 62.6 °F 55.4 °F 77% 30.05 in 10.0 mi WSW 6.9 mph - N/A   Clear
3:50 AM 62.6 °F 53.6 °F 72% 30.05 in 10.0 mi WSW 5.8 mph - N/A   Clear
4:10 AM 62.6 °F 53.6 °F 72% 30.05 in 10.0 mi WSW 5.8 mph - N/A   Clear
4:25 AM 62.6 °F 53.6 °F 72% 30.05 in 10.0 mi WSW 5.8 mph - N/A   Clear
4:50 AM 62.6 °F 53.6 °F 72% 30.05 in 10.0 mi SW 5.8 mph - N/A   Clear
5:10 AM 60.8 °F 53.6 °F 77% 30.05 in 10.0 mi WSW 5.8 mph - N/A   Clear
5:30 AM 60.8 °F 53.6 °F 77% 30.05 in 10.0 mi WSW 6.9 mph - N/A   Clear
5:50 AM 60.8 °F 55.4 °F 82% 30.05 in 10.0 mi WSW 6.9 mph - N/A   Clear
6:10 AM 60.8 °F 55.4 °F 82% 30.05 in 10.0 mi WSW 8.1 mph - N/A   Clear
6:30 AM 60.8 °F 55.4 °F 82% 30.05 in 10.0 mi WSW 6.9 mph - N/A   Clear
6:50 AM 60.8 °F 55.4 °F 82% 30.06 in 10.0 mi WSW 6.9 mph - N/A   Clear
7:10 AM 62.6 °F 55.4 °F 77% 30.06 in 10.0 mi WSW 5.8 mph - N/A   Clear
7:30 AM 62.6 °F 55.4 °F 77% 30.06 in 10.0 mi WSW 6.9 mph - N/A   Clear
7:50 AM 62.6 °F 57.2 °F 82% 30.06 in 10.0 mi WSW 6.9 mph - N/A   Clear
8:10 AM 64.4 °F 57.2 °F 77% 30.06 in 10.0 mi WSW 5.8 mph - N/A   Clear
8:30 AM 66.2 °F 57.2 °F 73% 30.07 in 10.0 mi WSW 5.8 mph - N/A   Clear
8:50 AM 68.0 °F 59.0 °F 73% 30.07 in 10.0 mi SW 4.6 mph - N/A   Clear
9:10 AM 69.8 °F 60.8 °F 73% 30.07 in 10.0 mi West 5.8 mph - N/A   Clear
9:30 AM 69.8 °F 59.0 °F 68% 30.07 in 10.0 mi WSW 5.8 mph - N/A   Clear
9:50 AM 73.4 °F 60.8 °F 65% 30.08 in 10.0 mi WNW 10.4 mph - N/A   Clear
10:10 AM 73.4 °F 59.0 °F 61% 30.08 in 10.0 mi WNW 10.4 mph 16.1 mph N/A   Clear
10:30 AM 73.4 °F 60.8 °F 65% 30.08 in 10.0 mi NW 10.4 mph - N/A   Clear
10:50 AM 75.2 °F 62.6 °F 65% 30.08 in 10.0 mi NNW 8.1 mph 17.3 mph N/A   Clear
11:10 AM 77.0 °F 64.4 °F 65% 30.08 in 10.0 mi WNW 10.4 mph - N/A   Clear
11:30 AM 77.0 °F 66.2 °F 69% 30.08 in 10.0 mi WNW 11.5 mph - N/A   Clear
11:50 AM 77.0 °F 60.8 °F 57% 30.08 in 10.0 mi NW 6.9 mph 16.1 mph N/A   Scattered Clouds
12:10 PM 77.0 °F 60.8 °F 57% 30.07 in 10.0 mi West 8.1 mph - N/A   Scattered Clouds
12:30 PM 77.0 °F 60.8 °F 57% 30.08 in 10.0 mi NW 9.2 mph 18.4 mph N/A   Scattered Clouds
12:50 PM 77.0 °F 60.8 °F 57% 30.08 in 10.0 mi West 8.1 mph - N/A   Mostly Cloudy
1:10 PM 77.0 °F 60.8 °F 57% 30.07 in 10.0 mi West 10.4 mph 16.1 mph N/A   Mostly Cloudy
1:30 PM 77.0 °F 64.4 °F 65% 30.07 in 10.0 mi WNW 10.4 mph - N/A   Mostly Cloudy
1:50 PM 78.8 °F 57.2 °F 47% 30.07 in 10.0 mi WNW 11.5 mph 20.7 mph N/A   Scattered Clouds
2:10 PM 77.0 °F 62.6 °F 61% 30.07 in 10.0 mi NW 6.9 mph - N/A   Scattered Clouds
2:30 PM 77.0 °F 57.2 °F 50% 30.06 in 10.0 mi WNW 9.2 mph - N/A   Mostly Cloudy
2:50 PM 77.0 °F 59.0 °F 54% 30.06 in 10.0 mi WNW 10.4 mph 17.3 mph N/A   Mostly Cloudy
3:10 PM 78.8 °F 60.8 °F 54% 30.06 in 10.0 mi WNW 10.4 mph 19.6 mph N/A   Mostly Cloudy
3:30 PM 78.8 °F 59.0 °F 51% 30.05 in 10.0 mi West 8.1 mph - N/A   Mostly Cloudy
3:50 PM 77.0 °F 60.8 °F 57% 30.05 in 10.0 mi WNW 5.8 mph - N/A   Mostly Cloudy
4:10 PM 77.0 °F 60.8 °F 57% 30.05 in 10.0 mi WSW 5.8 mph - N/A   Scattered Clouds
4:30 PM 78.8 °F 64.4 °F 61% 30.05 in 10.0 mi NW 5.8 mph - N/A   Scattered Clouds
4:50 PM 78.8 °F 53.6 °F 42% 30.05 in 10.0 mi NNW 5.8 mph - N/A   Overcast
5:10 PM 80.6 °F 51.8 °F 37% 30.05 in 10.0 mi NNW 6.9 mph - N/A   Mostly Cloudy
5:30 PM 80.6 °F 46.4 °F 30% 30.05 in 10.0 mi NNW 9.2 mph - N/A   Mostly Cloudy
5:50 PM 80.6 °F 46.4 °F 30% 30.06 in 10.0 mi NNW 8.1 mph - N/A   Mostly Cloudy
6:10 PM 78.8 °F 46.4 °F 32% 30.07 in 10.0 mi North 5.8 mph - N/A   Scattered Clouds
6:30 PM 77.0 °F 44.6 °F 32% 30.07 in 10.0 mi North 4.6 mph - N/A   Scattered Clouds
6:50 PM 78.8 °F 41.0 °F 26% 30.08 in 10.0 mi NNW 5.8 mph - N/A   Mostly Cloudy
7:10 PM 75.2 °F 39.2 °F 27% 30.08 in 10.0 mi NNW 4.6 mph - N/A   Scattered Clouds
7:30 PM 73.4 °F 39.2 °F 29% 30.09 in 10.0 mi Calm Calm - N/A   Clear
7:50 PM 73.4 °F 37.4 °F 27% 30.09 in 10.0 mi WNW 3.5 mph - N/A   Clear
8:10 PM 71.6 °F 39.2 °F 31% 30.10 in 10.0 mi Calm Calm - N/A   Clear
8:30 PM 71.6 °F 41.0 °F 33% 30.11 in 10.0 mi NW 4.6 mph - N/A   Clear
8:50 PM 69.8 °F 44.6 °F 40% 30.12 in 10.0 mi Calm Calm - N/A   Clear
9:10 PM 68.0 °F 44.6 °F 43% 30.13 in 10.0 mi Calm Calm - N/A   Clear
9:30 PM 66.2 °F 46.4 °F 49% 30.14 in 10.0 mi Calm Calm - N/A   Clear
9:50 PM 66.2 °F 44.6 °F 46% 30.15 in 10.0 mi Calm Calm - N/A   Clear
10:10 PM 64.4 °F 46.4 °F 52% 30.15 in 10.0 mi Calm Calm - N/A   Clear
10:30 PM 64.4 °F 51.8 °F 64% 30.15 in 10.0 mi Calm Calm - N/A   Clear
10:50 PM 60.8 °F 51.8 °F 72% 30.16 in 10.0 mi Calm Calm - N/A   Clear
11:10 PM 60.8 °F 48.2 °F 63% 30.16 in 10.0 mi Calm Calm - N/A   Clear
11:30 PM 60.8 °F 48.2 °F 63% 30.17 in 10.0 mi Calm Calm - N/A   Clear
11:50 PM 59.0 °F 48.2 °F 67% 30.17 in 10.0 mi Calm Calm - N/A   Clear